DELTA 1 R/B, 515

Orbit data source: Space-Track

DELTA 1 R/B, 515 is space debris originally from a launch on Thu, 13 Dec 1962 UTC launched from the Air Force Eastern Test Range (AFETR). Debris objects in space refer to the collection of defunct objects orbiting the Earth. Examples of debris include non-operational satellites, rocket bodies, and fragments generated from explosions, collisions, or faulty payload assembly.

Loading next visibility...
Identifier
515, 1962-068B
Orbit
Active
Country
Flag of USUS
Related business
Manufacturer
ABL
Mission
Spacecraft
Bus & Motor
ALTAIR, Unknown motor
Mass
24 kg wet, 24 kg dry
Launch date (UTC)
1962-12-13 (63 years ago)
Launch vehicle
Unknown
Launch site
Air Force Eastern Test Range (AFETR)
Object type
Payload
Rocket body
Debris
Shape & HBR
Unknown
Radar Cross Section
Medium (>0.1 m² and <1 m²)

Expand to show TLE details & history
Last TLE update: 15 hours ago

TLE from 15 hours ago
0 DELTA 1 R/B
1 00515U 62068B   25303.98348028 -.00000024  00000-0  00000-0 0  9995
2 00515  47.5089 291.6884 2831151   0.5659 359.7319  7.79273997789988
Epoch: 2025-10-30T23:36Z
TLE epoch observation values (Epoch: 2025-10-30T23:36:12.696Z)
Latitude
-0.00006°
Longitude
-101.899°
Altitude
1,326.364 km
Speed
8.149 km/s
True Right ascension
19h 26m 45s
True Declination
0° 00' 00"
Sunlit
Object was in daylight at epoch
Visualization orbit readout
Latitude
Unknown
Longitude
Unknown
Altitude
Unknown
Speed
Unknown
Apparent Right ascension
Unknown
Apparent Declination
Unknown
Sunlit
N/A
Visualization observer readout
Local Sidereal Time
10:28:05
Azimuth
Unknown
Elevation
Unknown
Doppler factor
Unknown
Orbital elements
Apogee altitude
7,412.221 km
Perigee altitude
1,326.627 km
Semi-major axis
10,747.561 km
Eccentricity
0.28312
Inclination
47.5089°
RAAN
291.6884°
Arg. of periapsis
0.5659°
True anomaly
359.49967°
Mean anomaly
359.7319°
Eccentric anomaly
359.62602°
Mean motion
1.94795 °/min
Orbital period
184.81 mins
BSTAR
0
Loading maneuver chart data...
Computing Atmospheric mass density...
Loading historical data...
Loading historical data...
Loading historical data...
Loading historical data...
Loading historical data...
Loading historical data...
Loading historical data...
Other satellites on launch #68 in the year 1962 (1962-12-13 UTC)

Documentation

Showing up to 5 results
|